Regional Weather Roundup
Issued by NWS

Home | Current Version | Previous Version | Text Only | Print | Product List | Glossary On
Versions: 1 2 3 4 5 6 7 8 9 10 11 12 13 14 15 16 17 18 19 20 21 22 23 24 25 26 27 28 29 30 31 32 33 34 35 36 37 38 39 40 41 42 43 44 45 46 47 48 49 50
000
ASUS42 KFFC 272203
RWRGA
WEATHER ROUNDUP FOR GEORGIA
NATIONAL WEATHER SERVICE PEACHTREE CITY GA
600 PM EDT WED MAY 27 2015

NOTE: "FAIR" INDICATES FEW OR NO CLOUDS BELOW 12,000 FEET WITH NO
SIGNIFICANT WEATHER AND/OR OBSTRUCTIONS TO VISIBILITY.

* = USE WITH CAUTION. THE STATIONS MARKED WITH AN ASTERISK MAY NOT
REPORT WEATHER SUCH AS PRECIPITATION, FOG, OR THUNDER AND ARE NOT
QUALITY CONTROLLED BY NWS.

THE REMARK "TC" DENOTES TEMPERATURE READING IN DEGREES CELSIUS.

GAZ001>058-272300-
NORTH GEORGIA

CITY           SKY/WX    TMP DP  RH WIND       PRES   REMARKS
ATLANTA        PTSUNNY   82  66  58 S10       30.17F
ATHENS         MOSUNNY   82  64  54 S5        30.18F
CHAMBLEE       PTSUNNY   80  66  62 SE5       30.17F
PEACHTREE CITY MOSUNNY   83  66  56 SE9       30.17F
ROME           MOSUNNY   82  65  56 E5        30.15S
WEST ATLANTA   MOSUNNY   83  64  52 SE6       30.16F
GAINESVILLE    MOSUNNY   80  65  59 S7        30.21F
CARTERSVILLE   SUNNY     81  63  54 CALM      30.16F


CITY           SKY/WX    TMP DP  RH WIND       PRES   REMARKS
DALTON*        PTSUNNY   81  63  54 E8        30.16F
LAWRENCEVILLE* PTSUNNY   82  63  51 S6        30.17F
MARIETTA       PTSUNNY   82  66  57 S3        30.17F
KENNESAW*      MOSUNNY   82  64  54 VRB5      30.17F
BLAIRSVILLE*     N/A     80  22  12 CALM      30.21F
$$

GAZ059>098-102>109-272300-
CENTRAL GEORGIA

CITY           SKY/WX    TMP DP  RH WIND       PRES   REMARKS
AUGUSTA-BUSH   SUNNY     87  66  49 S7        30.14F
AUGUSTA-DANIEL SUNNY     87  66  49 S3        30.17S
COLUMBUS       PTSUNNY   83  67  58 SE7       30.12F
MACON          MOSUNNY   87  66  49 CALM      30.15F
ROBINS AFB     MOSUNNY   85  69  58 NE5       30.14F


CITY           SKY/WX    TMP DP  RH WIND       PRES   REMARKS
LAGRANGE*      CLOUDY    78  74  89 SE6       30.15F
SYLVANIA*      CLOUDY    83  74  75 E3        30.18R
MILLEDGEVILLE* SUNNY     84  70  61 CALM      30.16F
$$

GAZ099>101-110>166-272300-
SOUTH GEORGIA

CITY           SKY/WX    TMP DP  RH WIND       PRES   REMARKS
SAVANNAH       PTSUNNY   83  64  52 S12       30.18F
VALDOSTA       PTSUNNY   85  68  56 E3        30.13F
ALMA           PTSUNNY   85  65  51 SE6       30.14F
FT STEWART     SUNNY     84  65  53 SE12      30.16S
ALBANY         PTSUNNY   84  68  58 S15       30.15F
HUNTER AFB     SUNNY     82  67  61 SE8       30.16S
MOODY AFB      PTSUNNY   82  68  62 NE7       30.13F
BRUNSWICK        N/A     82  61  47 SE10      30.19S


CITY           SKY/WX    TMP DP  RH WIND       PRES   REMARKS
BAINBRIDGE*    TSTM      73  72  94 SW3       30.16F
MOULTRIE*      PTSUNNY   77  72  83 CALM      30.16S
VIDALIA*       TSTM      73  70  88 S8G17     30.19R
WAYCROSS*      PTSUNNY   86  65  48 SE12      30.15S
DOUGLAS*       PTSUNNY   81  72  74 N3        30.16F
$$


USA.gov is the U.S. government's official web portal to all federal, state and local government web resources and services.